{"data":{"norad_id":61689,"intl_designator":"2024-195C","name":"STARLINK-11312 [DTC]","alt_names":[],"object_type":"PAYLOAD","status":"ACTIVE","operator":null,"country":"US","launch_date":"2024-10-30","launch_site_code":"AFWTR","launch_vehicle":null,"mission":null,"orbit_class":"UNKNOWN","rcs_meters":null,"size_class":null,"mass_kg":null,"dimensions":null,"purposes":["comms"],"wikipedia_slug":null,"has_3d_model":false,"image_url":null,"decayed_at":null,"tle_current":{"epoch":"2026-09-21T21:01:00.365952Z","epoch_age_seconds":69372,"freshness":"FRESH","line1":"1 61689U 24195C   26264.87569868 -.00000575  00000+0  11290-6 0  9994","line2":"2 61689  53.1583 139.3703 0000879  94.4863 265.6255 15.69706700109845","mean_motion":15.697067,"eccentricity":8.79e-5,"inclination_deg":53.1583,"raan_deg":139.3703,"arg_perigee_deg":94.4863,"mean_anomaly_deg":265.6255,"bstar":1.129e-7,"rev_number":10984,"period_min":91.736883075036,"perigee_km":359.14393471942,"apogee_km":360.32845282689,"semimajor_km":6737.8731937732,"source":"CELESTRAK","updated_at":"2026-09-22T09:00:49.406285Z"}}}